Location: Stockholm
(59.3293°N, 18.0686°E)
Time: 01:39:37
(UTC+02:00)

ISS - Pass Details

Date: 31 March 2019
Orbit: 408 x 410 km, 51.6° (Epoch: 26 April)

Event Time Altitude Azimuth Distance (km) Brightness Sun altitude
Rises 20:59:51 0° 259° (W) 2,340 0.9 -11.9°
Reaches altitude 10° 21:02:20 10° 240° (WSW) 1,476 -0.6 -12.1°
Maximum altitude 21:04:43 19° 194° (SSW) 1,067 -1.9 -12.4°
Enters shadow 21:06:03 15° 164° (SSE) 1,208 -1.9 -12.5°
